Flag for Germany Weather past 2 weeks in Öhringen, Baden-Württemberg, Germany

Now
62 °F

Passing clouds.


Feels Like: 62 °F
Forecast: 46 / 75 °F
Wind: 3 mph from Northwest

Location: Oehringen

Current Time: Jul 30, 2015 at 10:50:50 PM

Latest Report: Jul 30, 2015 at 10:00 PM


Visibility: 31 mi

Pressure: 30.02 "Hg

Humidity: 46%

Dew point: 41 °F

Location of ÖhringenLocation

Historic Weather in Öhringen — Graph

°F

Öhringen temperature yesterday

Maximum temperature yesterday: 64 °F (at 7:00 PM)
Minimum temperature yesterday: 55 °F (at 2:00 AM)
Average temperature yesterday: 58 °F

Past Weeks' High & Low Weather Summary

 TemperatureHumidityPressure
High95 °F (Jul 17, 7:00 PM)94% (Jul 29, 3:00 PM)30.09 "Hg (Jul 29, 3:00 PM)
Low50 °F (Jul 26, 7:00 AM)19% (Jul 17, 6:00 PM)29.65 "Hg (Jul 24, 9:00 PM)
Average72 °F58%29.91 "Hg
* Reported Jul 15 9:00 PM — Jul 30 9:00 PM, Öhringen, Weather by CustomWeather, © 2015

Note: Actual official high and low records may vary slightly from our data, if they occured in-between our weather recording intervals... More about our weather records

Advertising

Öhringen weather history for previous 24 hours

 ConditionsComfort  
Time TempWeatherWind HumidityBarometerVisibility
9:00 PM
Thu, Jul 30
65 °FPassing clouds.3 mph39%30.00 "Hg31 mi
8:00 PM69 °FScattered clouds.3 mph37%29.98 "Hg31 mi
7:00 PM69 °FSunny.5 mph38%29.98 "Hg34 mi
6:00 PM69 °FOvercast.6 mph39%29.98 "Hg34 mi
5:00 PM69 °FPartly sunny.6 mph39%29.97 "Hg19 mi
4:00 PM68 °FScattered clouds.7 mph38%29.98 "Hg19 mi
3:00 PM67 °FOvercast.5 mph43%29.99 "Hg25 mi
2:00 PM67 °FPartly sunny.7 mph43%30.00 "Hg19 mi
1:00 PM65 °FOvercast.3 mph51%30.01 "Hg31 mi
12:00 PM61 °FOvercast.5 mph59%30.02 "Hg22 mi
10:00 AM58 °FOvercast.2 mph71%30.01 "Hg19 mi
9:00 AM56 °FOvercast.1 mph74%30.01 "Hg19 mi
8:00 AM54 °FOvercast.1 mph81%30.00 "Hg19 mi
7:00 AM52 °FOvercast.1 mph83%30.00 "Hg19 mi
5:00 AM51 °FOvercast.2 mph83%30.00 "Hg19 mi
4:00 AM51 °FClear.1 mph84%29.99 "Hg19 mi
3:00 AM51 °FClear.No wind85%29.99 "Hg19 mi
2:00 AM53 °FPassing clouds.1 mph81%29.98 "Hg19 mi
1:00 AM55 °FClear.2 mph74%29.97 "Hg22 mi
11:00 PM
Wed, Jul 29
57 °FClear.3 mph72%29.94 "Hg28 mi
10:00 PM59 °FClear.2 mph68%29.92 "Hg31 mi
Weather by CustomWeather, © 2015

See weather overviewHow to use our weather pages